Location: Newark
(45.9456°N, 15.4064°E)
Time: 02:21:14
(UTC+00:00)

SR - Pass Details

Date: 28 January 2020
Orbit: 575 x 881 km, 66.7° (Epoch: 19 February)

Event Time Altitude Azimuth Distance (km) Brightness Sun altitude
Rises 05:19:01 0° 325° (NW) 3,400 - -11.7°
Exits shadow 05:20:49 - 325° (NW) 2,714 ? -11.4°
Reaches altitude 10° 05:21:34 10° 325° (NW) 2,425 ? -11.3°
Maximum altitude 05:27:09 78° 240° (WSW) 796 ? -10.4°
Drops below altitude 10° 05:32:13 10° 155° (SSE) 2,211 ? -9.5°
Sets 05:34:28 0° 153° (SSE) 3,079 ? -9.2°
